Theta_e
304 304 304 304 304 304 304 305 305 305 305 304 306 306 307 307 307 306 306 306 307 308 311 312 312 313 313 313 312 314 309 312 311 312 312 310 310 312 311 311 313 312 311 310 309
304 304 304 304 304 304 304 304 305 305 305 305 304 305 306 306 308 307 307 306 307 308 311 311 311 312 312 312 311 311 309 311 308 308 308 310 311 311 311 311 312 311 310 310 309
305 305 304 304 305 304 304 304 304 304 306 306 306 304 305 306 310 308 308 306 306 307 309 309 311 311 311 310 310 309 308 307 309 310 310 310 311 311 311 310 311 311 310 308 306
305 305 304 304 305 304 304 304 304 305 306 306 305 305 305 309 313 307 308 307 306 306 306 308 310 312 310 309 311 307 309 310 310 309 309 309 309 310 310 310 311 310 307 306 306
305 305 305 304 304 304 304 304 304 305 306 306 306 305 309 308 307 307 308 307 306 307 310 311 312 312 309 310 310 308 309 310 309 309 310 309 308 309 309 309 311 309 307 306 306
305 305 305 305 304 304 305 305 305 305 305 306 306 306 309 309 308 307 308 308 308 308 309 310 311 311 310 310 309 310 309 309 309 309 309 308 308 308 310 309 310 308 308 307 306
305 304 305 305 305 304 304 304 304 304 305 306 307 308 310 308 308 307 308 308 308 308 309 310 311 311 309 309 310 309 309 308 309 309 308 308 308 307 309 310 308 308 308 307 307
305 305 305 305 306 305 305 304 305 305 305 305 306 307 307 308 308 308 307 308 308 308 308 309 310 309 309 309 309 309 309 309 308 308 309 308 308 310 309 309 308 308 308 308 307
306 306 305 305 305 305 305 304 306 306 306 306 306 309 307 307 307 308 307 306 306 306 307 308 309 310 310 310 309 308 307 309 309 307 307 308 306 307 309 309 308 308 308 309 307
307 307 306 305 305 305 304 305 305 305 305 305 306 308 306 307 307 308 308 307 307 307 309 309 312 307 305 307 311 308 307 307 309 307 307 306 305 305 309 309 308 309 309 309 308
308 308 308 306 305 305 304 305 306 308 305 308 307 307 306 307 307 307 307 308 309 308 308 310 307 307 308 308 308 307 308 306 307 307 307 306 305 305 308 308 308 308 308 307 307
308 308 309 308 304 305 305 304 309 307 305 304 305 305 306 306 308 306 307 309 310 308 309 307 308 307 308 308 308 308 307 306 304 308 307 306 307 306 305 307 309 308 308 307 306
308 309 309 309 306 304 305 304 305 306 308 304 306 305 304 307 306 306 307 308 308 309 308 310 308 307 307 307 307 307 307 305 305 306 307 306 302 307 307 308 308 308 307 306 305
307 308 309 309 307 305 305 305 305 305 308 308 304 306 305 306 305 305 306 307 307 307 305 305 306 307 307 308 307 309 306 306 307 306 304 304 300 303 306 306 306 307 307 306 305
306 308 309 309 309 305 307 305 304 310 312 307 304 305 305 308 306 306 306 310 307 305 307 308 306 306 307 307 306 309 305 306 306 307 306 307 302 303 306 305 304 306 307 307 306
304 307 308 309 308 306 304 303 308 309 311 302 305 306 307 307 306 305 306 306 307 305 304 305 305 305 305 305 306 306 306 307 305 305 298 308 300 299 305 305 306 306 307 306 306
304 306 308 309 308 305 304 307 306 308 305 304 305 305 307 307 307 306 307 306 306 304 302 305 304 303 304 306 306 306 307 299 302 304 301 302 299 299 302 305 305 305 306 306 306
306 307 307 309 308 304 303 306 302 302 305 305 306 306 307 306 307 307 305 305 303 305 299 303 304 304 303 305 307 305 303 300 299 307 302 302 303 304 305 305 306 306 306 306 306
307 308 305 309 307 303 311 301 306 308 309 306 306 306 306 306 306 307 307 305 303 302 303 301 303 303 303 304 304 308 305 303 300 294 302 300 303 302 304 304 306 306 306 305 305
308 308 305 307 307 303 306 306 304 314 306 305 308 307 306 306 306 307 306 305 303 302 302 303 303 301 302 304 304 305 303 305 300 299 301 303 307 302 304 303 304 305 305 304 303
308 308 306 308 305 307 303 303 306 311 307 307 310 309 310 307 307 308 308 304 303 301 302 297 301 304 300 301 305 302 303 301 303 303 302 301 305 302 303 304 302 303 304 304 302
308 303 307 306 303 302 301 303 308 305 305 306 311 311 309 308 310 312 308 306 303 301 300 300 303 303 300 300 300 302 306 302 302 303 299 302 304 303 302 303 305 304 305 304 302
307 305 305 303 301 299 299 306 307 304 304 305 307 308 308 311 311 308 305 303 302 302 301 299 301 300 305 303 300 302 302 303 300 301 300 304 307 304 300 301 302 303 303 303 302
308 302 300 302 303 300 299 303 305 306 305 306 307 307 309 307 307 306 304 303 302 303 302 301 298 303 310 312 304 300 301 302 300 296 301 305 305 305 300 299 304 305 303 303 302
309 303 302 300 299 303 303 304 306 305 304 307 306 307 309 306 304 305 303 302 303 302 301 300 300 295 296 301 303 302 301 300 300 302 305 307 303 308 300 300 306 306 305 303 304
308 305 302 301 304 304 306 304 307 306 304 304 308 307 309 310 313 307 304 303 306 302 301 301 305 299 299 297 299 300 300 300 301 297 299 301 303 305 305 305 304 304 304 303 304
310 310 309 304 303 304 306 304 307 307 305 306 307 308 310 311 308 307 308 309 306 303 301 301 304 305 308 295 298 306 302 301 300 300 301 302 307 304 304 304 305 305 303 302 302
Wind_Speed
3 5 4 4 2 3 3 3 4 4 2 4 6 7 11 13 13 6 10 8 6 7 10 9 10 9 3 4 4 4 4 3 3 4 2 3 2 2 4 4 4 1 0 4 10
4 4 4 4 3 1 2 4 3 6 3 2 4 4 3 5 6 13 10 7 4 5 4 7 6 5 3 3 4 6 4 2 2 3 3 2 3 1 3 4 4 6 5 7 13
2 3 4 3 2 1 1 2 3 5 5 3 1 5 5 4 4 9 9 5 3 5 6 8 8 6 6 4 7 4 4 5 5 6 6 6 1 3 3 2 3 8 10 11 11
3 3 4 3 2 1 2 2 2 2 3 4 7 5 4 2 2 6 7 4 2 3 3 7 4 2 4 4 2 6 8 6 4 6 5 4 9 5 6 6 8 10 11 10 8
3 3 2 4 4 3 3 2 0 2 5 4 4 7 4 5 5 6 7 5 3 6 7 7 7 3 5 6 8 5 4 7 6 5 4 8 9 10 14 10 13 11 8 8 9
4 4 3 4 5 6 5 2 3 3 3 7 5 4 2 4 4 7 7 7 6 6 5 5 8 7 10 5 4 4 8 8 5 3 4 4 8 9 6 12 11 10 11 10 12
6 4 3 3 4 5 4 1 1 1 2 4 8 5 3 3 4 6 6 10 8 8 10 10 9 3 6 4 6 9 3 1 4 4 1 3 7 8 10 12 10 12 15 15 15
7 5 4 3 3 2 1 3 0 2 2 4 4 4 4 6 4 5 5 7 8 10 11 10 9 10 5 10 3 2 2 2 2 1 2 4 8 7 13 12 12 12 14 16 16
8 7 6 5 3 2 2 1 2 2 3 5 4 3 4 5 2 3 4 4 6 8 8 6 6 6 4 3 3 3 1 1 1 3 1 3 7 9 13 14 13 11 12 14 14
9 7 7 5 4 2 1 5 3 4 4 6 6 1 5 3 3 2 3 2 3 3 3 3 4 4 5 5 1 3 3 4 2 3 2 5 13 12 20 20 15 11 12 12 13
11 9 7 7 5 3 4 7 3 2 3 3 4 3 5 4 4 3 3 4 4 4 3 5 6 3 2 2 0 1 2 5 3 1 2 3 8 11 16 14 9 10 7 4 5
12 10 8 7 6 5 7 4 4 4 8 6 8 6 6 3 0 2 3 1 1 3 1 6 3 0 2 2 2 3 2 4 6 2 2 5 14 12 9 9 8 8 9 9 9
13 12 9 7 7 6 7 7 3 6 3 2 3 6 4 3 2 4 2 3 5 5 5 5 3 0 2 3 4 3 2 2 4 9 4 5 7 5 1 8 9 11 9 7 6
15 13 10 8 5 7 7 9 6 5 4 2 1 2 3 6 2 2 4 1 4 4 4 5 1 0 1 3 3 2 1 2 4 6 2 4 4 6 4 6 6 14 12 7 8
18 14 12 11 5 8 4 9 12 5 2 2 3 3 4 1 6 3 3 3 3 3 3 2 1 1 2 1 2 2 1 1 2 2 2 4 4 7 2 6 7 12 11 8 7
19 17 15 13 11 6 9 13 8 6 5 2 5 4 4 2 1 3 2 4 6 4 6 3 2 3 1 1 1 1 1 1 2 2 3 3 4 6 3 4 2 5 9 7 5
20 19 17 14 10 11 14 11 4 4 4 4 5 5 4 4 2 3 3 2 3 4 2 3 1 1 2 1 2 0 3 4 5 4 4 3 3 9 5 3 4 4 2 4 5
20 20 19 16 12 16 18 4 3 4 6 3 5 5 4 5 2 3 3 2 1 3 4 4 5 1 4 2 1 2 2 4 4 2 5 1 5 3 3 4 3 1 3 7 9
22 21 20 18 15 20 13 2 9 8 7 9 4 5 3 3 4 4 5 5 5 5 6 4 3 1 3 2 2 1 2 2 6 2 3 3 7 3 2 1 2 1 2 6 4
27 21 20 20 19 21 3 6 5 4 6 3 6 4 7 7 6 6 7 2 5 1 1 5 2 2 2 2 2 1 2 3 3 1 4 5 6 5 3 2 4 4 4 3 5
29 12 13 22 22 13 4 7 6 6 7 6 5 5 5 8 8 7 8 1 4 4 2 4 3 3 3 3 5 1 1 2 2 3 4 1 6 7 6 6 8 9 7 5 7
22 3 19 28 8 4 4 6 7 6 5 3 3 2 6 7 6 5 6 1 9 12 6 3 5 3 6 3 2 2 2 4 4 4 1 3 7 3 5 6 7 9 7 6 6
20 8 26 35 5 3 4 4 6 5 6 7 7 4 1 6 5 4 5 2 10 4 6 7 1 2 6 2 3 3 4 3 3 3 5 5 6 1 6 6 9 10 12 10 7
16 4 5 18 4 7 6 5 7 7 5 5 5 6 4 3 5 6 4 2 4 3 5 5 3 6 5 4 4 2 3 5 4 3 3 7 9 12 7 7 16 16 14 14 13
11 6 12 7 7 4 8 11 8 7 3 8 2 4 8 4 3 4 4 3 2 6 3 1 4 3 4 6 4 5 5 7 9 7 6 6 10 18 6 8 20 25 23 19 19
15 7 9 5 20 17 8 9 14 5 8 6 5 12 7 7 8 10 9 5 6 3 5 3 3 2 4 0 3 5 8 9 14 4 11 9 23 18 33 25 21 17 16 13 14
21 23 14 11 7 15 16 7 14 11 11 8 12 7 7 7 9 16 5 11 17 11 7 6 6 3 4 1 1 8 11 14 5 6 9 8 16 3 5 8 12 11 7 9 10
Wind_Direction
14 20 29 34 34 71 64 61 63 51 84 151 147 100 82 75 63 60 49 38 60 107 106 99 93 83 61 50 41 345 63 56 34 61 116 75 75 30 339 200 222 76 277 266 294
350 12 12 25 32 59 39 26 29 30 53 142 186 177 87 58 69 49 35 29 70 131 134 105 100 70 53 26 25 61 76 122 56 69 22 73 32 347 319 284 193 155 170 264 295
326 349 4 13 43 20 13 355 354 3 35 48 197 201 180 39 78 22 24 26 80 92 102 108 108 87 78 40 14 45 122 149 58 58 17 336 308 297 257 304 161 202 259 292 304
299 325 339 356 11 52 340 328 317 1 74 42 29 133 169 1 139 22 25 43 86 108 124 92 69 91 88 57 33 96 59 114 101 65 12 349 315 277 231 244 258 273 280 292 308
276 302 316 320 335 332 311 308 314 85 63 68 81 106 112 77 72 41 42 48 101 114 112 97 82 86 103 111 58 82 135 96 109 75 301 295 285 266 258 252 256 275 274 293 294
258 280 301 314 324 336 325 270 182 174 70 48 122 128 139 86 96 57 53 62 81 103 103 119 85 110 87 61 69 120 128 132 117 96 236 246 277 313 260 215 246 265 279 286 286
242 255 269 296 318 343 351 92 168 113 174 123 88 95 113 124 113 81 69 75 78 91 108 118 132 145 112 98 115 141 102 194 193 124 289 312 281 228 239 213 255 255 258 263 267
251 252 256 257 285 308 18 349 47 127 155 129 143 124 101 134 129 102 89 81 84 86 95 100 109 97 80 119 126 188 95 107 221 73 152 62 276 258 213 225 246 264 276 251 256
239 244 257 259 259 247 279 256 123 112 152 152 126 113 127 140 134 128 118 106 87 92 87 83 88 85 102 91 23 4 246 82 207 139 230 139 275 276 223 231 246 263 275 277 251
243 251 256 251 259 267 229 150 165 163 126 124 126 114 161 150 138 131 129 112 82 107 86 62 67 72 29 46 166 310 359 322 300 196 193 259 261 274 299 229 244 265 280 280 260
232 236 247 254 244 217 164 143 162 184 150 128 114 120 129 132 121 115 130 116 103 58 67 37 67 72 54 49 10 347 354 296 303 113 314 248 280 276 295 219 241 272 285 306 317
230 232 235 249 252 220 191 203 211 149 109 101 117 113 135 167 354 73 126 101 48 86 360 32 80 268 326 21 54 33 334 314 283 333 329 294 282 267 246 239 230 252 275 283 292
223 229 228 231 250 232 203 208 199 145 83 118 140 122 155 156 26 348 95 114 95 56 16 116 154 154 349 42 39 49 113 27 260 318 267 298 302 322 115 205 229 247 261 276 274
225 221 222 220 233 224 213 198 181 158 74 237 126 134 154 149 63 64 85 47 41 134 102 90 254 321 47 87 354 206 14 338 313 8 316 33 281 310 232 235 248 245 237 242 279
223 216 214 207 194 196 210 174 161 176 43 126 151 162 140 174 138 55 97 69 85 95 110 192 118 57 79 127 346 195 289 257 295 327 1 9 67 271 86 269 242 246 229 259 271
223 215 209 206 205 185 165 158 159 49 251 182 148 157 122 166 118 122 82 90 123 79 34 94 44 44 78 312 281 310 245 277 3 60 33 237 122 285 223 223 200 223 243 248 271
220 213 209 204 194 180 164 158 51 138 334 204 185 161 178 153 155 196 143 87 145 79 341 353 43 63 15 13 303 318 55 338 353 11 207 155 45 246 286 244 171 171 250 279 286
214 212 210 203 186 173 166 66 107 238 210 183 140 126 179 153 150 164 128 152 312 96 97 137 319 11 345 56 198 39 124 144 228 302 274 294 237 251 177 143 121 96 302 300 308
206 209 210 199 190 176 171 114 198 198 167 148 73 113 200 216 152 155 190 173 195 175 141 118 296 348 33 358 63 249 48 146 103 45 30 252 284 332 236 237 147 123 291 311 312
201 203 210 193 186 179 120 229 210 188 134 155 153 163 166 189 159 170 183 197 173 259 244 190 52 298 334 341 8 354 182 65 10 46 303 295 286 235 317 285 207 207 257 269 308
192 180 199 183 177 176 185 224 215 199 162 151 182 154 173 169 176 180 181 335 152 146 69 133 102 297 16 213 188 126 56 76 112 134 167 287 275 210 206 180 189 188 200 277 305
172 157 175 170 157 185 168 194 201 162 165 146 136 139 160 154 155 163 154 70 167 149 147 191 134 166 226 289 339 310 199 170 125 255 173 145 274 223 217 181 176 184 212 247 290
164 146 171 177 175 210 264 220 211 143 181 171 174 186 26 154 111 121 102 29 151 137 158 188 50 20 337 355 357 246 214 177 116 80 209 141 262 277 254 257 243 245 238 241 260
156 135 158 202 199 149 156 200 185 204 173 170 142 125 113 72 24 141 123 176 165 130 128 170 103 164 196 192 130 223 231 194 149 130 203 225 270 272 271 251 259 262 259 260 243
168 194 176 189 228 187 178 174 169 180 225 174 33 196 158 129 75 119 107 140 56 145 89 154 167 155 250 236 216 223 196 188 202 208 187 252 226 263 236 232 265 285 289 277 248
173 157 178 155 178 186 185 207 197 168 148 208 182 199 174 158 182 185 144 183 185 147 172 205 118 117 290 337 190 261 233 210 223 234 266 288 283 270 272 273 277 276 289 263 239
191 198 176 167 163 178 208 172 199 168 206 191 182 133 175 187 131 112 115 166 156 147 171 143 134 132 260 62 65 295 229 203 197 206 190 206 243 195 254 258 275 301 271 251 197